Regional Weather Roundup
Issued by NWS

Home | Current Version | Previous Version | Text Only | Print | Product List | Glossary Off
Versions: 1 2 3 4 5 6 7 8 9 10 11 12 13 14 15 16 17 18 19 20 21 22 23 24 25 26 27 28 29 30 31 32 33 34 35 36 37 38 39 40 41 42 43 44 45 46 47 48 49 50

000
ASUS43 KIND 251609
RWRIN

WEATHER ROUNDUP FOR INDIANA
NATIONAL WEATHER SERVICE INDIANAPOLIS IN
1200 PM EDT FRI JUL 25 2014

NOTE: "FAIR" INDICATES FEW OR NO CLOUDS BELOW 12,000 FEET WITH NO
SIGNIFICANT WEATHER AND/OR OBSTRUCTIONS TO VISIBILITY.

* - STATION DOES NOT REPORT WEATHER SUCH AS PRECIPITATION OR FOG.

+ - STATION NOT QUALITY CONTROLLED BY THE NATIONAL WEATHER SERVICE.
    USE DATA WITH CAUTION...ESPECIALLY DEWPOINT AND RELATIVE
    HUMIDITY OBSERVATIONS.

INZ001>003-010>013-019-020-251700-
NORTHWEST INDIANA

CITY           SKY/WX    TMP DP  RH WIND       PRES   REMARKS
GARY /AIRPORT/ CLOUDY    72  55  56 S6        30.03F
KNOX *+        MOSUNNY   72  55  55 SW7       30.05F
LA PORTE +     PTSUNNY   67  57  70 S5        30.06F
MICHIGAN CITY+ PTSUNNY   68  57  68 S5        30.05F
MONTICELLO +   SUNNY     72  57  58 SW12      30.07S
RENSSELAER +   SUNNY     72  59  64 SW10      30.06S
VALPARAISO     MOSUNNY   71  55  56 S9        30.06S

$$

LMZ046-743>745-251700-
SOUTHERN LAKE MICHIGAN

STATION/POSITION TIME  TEMP WIND        PRES
                       AIR  DIR/SP/G
                 (UTC) (F)  (DEG/KT/KT) (MB)
MICHIGAN CITY    1600   67  150/  7/  9   N/A

$$

INZ004-005-014>016-021>024-251700-
NORTH CENTRAL INDIANA

CITY           SKY/WX    TMP DP  RH WIND       PRES   REMARKS
ELKHART        CLOUDY    72  55  56 SW7       30.07S
GOSHEN         CLOUDY    71  56  58 SW9       30.08R
LOGANSPORT +   SUNNY     73  54  49 SW8       30.09S
PERU/GRISSOM   MOSUNNY   73  58  57 SW12      30.08F
ROCHESTER +    PTSUNNY   73  55  53 S6        30.08S
SOUTH BEND     CLOUDY    69  57  65 SW9       30.07S
WARSAW +       CLOUDY    70  54  56 SW6       30.09R

$$

INZ006>009-017-018-025>027-251700-
NORTHEAST INDIANA

CITY           SKY/WX    TMP DP  RH WIND       PRES   REMARKS
ANGOLA *+      MOSUNNY   73  54  49 SW8       30.07S
AUBURN +       PTSUNNY   72  52  49 SW7       30.09S
FORT WAYNE     PTSUNNY   71  55  56 SW9       30.10S
HUNTINGTON +   PTSUNNY   72  56  57 S6        30.09S

$$

INZ028-029-035-036-043>045-051>053-251700-
WEST CENTRAL INDIANA

CITY           SKY/WX    TMP DP  RH WIND       PRES   REMARKS
GREENCASTLE +  MOSUNNY   72  55  56 S5        30.11S
LAFAYETTE      SUNNY     72  54  53 S8        30.07F
TERRE HAUTE    CLOUDY    71  58  63 S8        30.10F

$$

INZ030>032-037>040-046>048-054>057-064-065-251700-
CENTRAL INDIANA

CITY           SKY/WX    TMP DP  RH WIND       PRES   REMARKS
ANDERSON       SUNNY     72  52  49 S12       30.11F
CP ATTERBURY + SUNNY     73  52  46 CALM      30.11S
COLUMBUS       MOSUNNY   72  55  56 CALM      30.11F
INDIANAPOLIS   MOSUNNY   72  52  49 SW5       30.09F
-EAGLE CREEK   SUNNY     73  52  47 SW6       30.09F
KOKOMO *+      SUNNY     73  55  53 W5        30.09S
MARION +       MOSUNNY   71  54  55 SW6       30.11S
MT COMFORT *+  SUNNY     72  59  64 SW3       30.10F
SHELBYVILLE    SUNNY     74  56  53 SE3       30.10F
ZIONSVILLE +   SUNNY     73  52  47 SW6       30.11S

$$

INZ033-034-041-042-049-050-058-059-251700-
EAST CENTRAL INDIANA

CITY           SKY/WX    TMP DP  RH WIND       PRES   REMARKS
MUNCIE         MOSUNNY   71  52  50 W8        30.11F

$$

INZ060-061-067>069-081>083-085>088-251700-
SOUTHWEST INDIANA

CITY           SKY/WX    TMP DP  RH WIND       PRES   REMARKS
EVANSVILLE     MOSUNNY   78  53  41 N7        30.11R
HUNTINGBURG *+ PTSUNNY   75  55  50 NW7       30.11R
WASHINGTON +   PTSUNNY   72  60  64 CALM      30.11S

$$

INZ062-063-066-070>080-084-089>092-251700-
SOUTH CENTRAL AND SOUTHEAST INDIANA

CITY           SKY/WX    TMP DP  RH WIND       PRES   REMARKS
BLOOMINGTON    MOSUNNY   73  53  49 VRB3      30.11S
NORTH VERNON + MOSUNNY   73  54  49 CALM      30.11

$$



USA.gov is the U.S. government's official web portal to all federal, state and local government web resources and services.